Flight Information

DEPARTURE
LA VERNE, CA
Elevation:
1013
Runways:
8L/26R - 3661x75 - ASPH-G
8R/26L - 4840x75 - ASPH-G
Active PE Departure:
26L - 26R
Current PE ATIS:
P
Altimeter:
Remarks:
ATIS:
124.4 909-596-1523
Clearance Delivery:
121.875
Ground:
125
Tower:
118.2
DESTINATION
,
Elevation:
TPA:
1000 (est.)


6762.1 NM74° True-14° Var59° HDG

Flight Plan:
(click to file on line)

1. Type
2. Aircraft Identification
3. Aircraft Type / Special Equipment
4. True Airspeed
kts
5. Departure Airport
(ICAO code)
6. Arriving Airport
(ICAO code)
7. Cruising Altitude
ft
8. Alternate Airport
(ICAO code)
9. Route of Flight
10. Remarks


00:00:00 Departure ATIS: Destination ATIS:

Clearance Limit:
Route:
Altitude: Expect in minutes
Frequency:
Transponder: (7500 Hijack / 7600 Lost Comms / 7700 Emergency)


KPOC 110247Z 21006KT 10SM CLR 17/07 A2984
Time: 2021-04-11T02:47:00Z
1618110435
Winds: 210 @ 6 kts
Visibility: 10.0 sm
Clouds (AGL): CLR
Temperature: 17.0 C
Dew Point: 7.0 C
Pressure: 29.840551 in Hgbr


Notes:

Data extracted from FAA Digital Chart Supplement. Effective: 0901Z Thursday, Feb 25, 2021 to 0901Z Thursday, APR 22, 2021
Current ATIS data is provided courtisy of PilotEdge.